Location: Casa Rossa
(45.2389°N, 12.2056°E)
Time: 04:29:19
(UTC+00:00)

Cosmos 1933 Rocket - Pass Details

Date: 14 July 2020
Orbit: 607 x 629 km, 82.5° (Epoch: 11 August)

Event Time Altitude Azimuth Distance (km) Brightness Sun altitude
Exits shadow 00:23:25 63° 213° (SSW) 680 3.4 -21.4°
Maximum altitude 00:24:02 79° 278° (W) 626 3.4 -21.4°
Drops below altitude 10° 00:28:24 10° 6° (N) 1,972 7.3 -21.2°
Sets 00:30:38 0° 8° (N) 2,883 8.5 -21.1°
